sat.trackr.live / text

‹ back to catalog

STARLINK-35127

NORAD 65639 · 2025-210T

PAYLOAD ACTIVE UNKNOWN

§ Identity

Operator
Country
US
Launch date
2025-09-18
Launch site
AFETR
Launch vehicle
Mass (kg)
RCS (m²)

Purposes: comms

External: N2YO · Heavens-Above · Gunter

§ Orbital elements

Epoch: 2026-09-19T23:45:46.785312Z

Period
93.85 min
Inclination
53.1601°
Eccentricity
0.0001483
Mean motion
15.34400809 rev/d
Perigee alt
461.7 km
Apogee alt
463.7 km
Semi-major
6,840.8 km
B*
4.8307e-4
RAAN
120.0160°
Arg perigee
90.3561°
Mean anomaly
269.7611°
Rev number
5,754

§ Raw data

STARLINK-351271 65639U 25210T   26262.99012483  .00015980  00000+0  48307-3 0  99902 65639  53.1601 120.0160 0001483  90.3561 269.7611 15.34400809 57544

JSON: /api/v1/satellites/65639 · /tle

For live sub-satellite position, see the globe view (requires WebGL).

§ Visibility from observer

Set your observer location to see the next 7 days of passes ≥ 10°. The values pass through the URL so the page stays shareable.

No JS? Fill the form by hand. The geolocation button needs JavaScript.